Location: ????????
(41.2031°N, 22.5756°E)
Time: 15:19:52
(UTC+00:00)

USA 215 - Pass Details

Date: 01 December 2020
Orbit: 1098 x 1110 km, 123.0° (Epoch: 14 January)

Event Time Altitude Azimuth Distance (km) Brightness Sun altitude
Exits shadow 16:59:20 33° 51° (NE) 1,762 3.9 -21.6°
Maximum altitude 17:02:35 84° 138° (SE) 1,119 3.2 -22.2°
Drops below altitude 10° 17:09:10 10° 226° (SW) 2,966 6.3 -23.4°
Sets 17:11:38 0° 227° (SW) 3,922 7.0 -23.9°
